Temperature
21 21 21 21 21 21 21 20 20 20 20 20 20 21 20 20 20 20 20 20 20 20 20 20 20 20 20 20 20 20 20 20 19 19 19 20 20 20 20 20 19 19 19
22 22 21 21 22 21 21 20 20 20 20 20 20 20 20 20 20 20 20 20 20 20 20 20 20 20 20 20 20 20 20 20 20 20 20 20 20 20 20 20 20 19 19
22 22 21 22 22 22 21 21 20 20 20 20 20 20 20 20 20 20 20 20 20 20 20 20 20 20 20 20 20 20 20 20 20 20 20 19 19 20 20 20 20 20 19
23 22 22 22 22 22 21 21 20 20 20 20 20 20 20 20 20 20 20 20 20 20 20 20 20 20 20 20 20 20 20 20 20 19 19 19 19 19 19 19 20 20 19
23 23 22 22 22 21 21 21 20 20 20 20 20 20 20 20 20 20 20 20 20 20 20 20 20 20 20 20 20 20 20 20 20 19 19 18 18 18 18 19 19 19 19
23 23 22 22 21 21 21 21 20 20 20 20 20 20 20 20 20 20 20 20 20 20 20 20 20 20 20 20 20 20 20 20 20 19 19 18 19 18 18 18 18 19 19
23 23 22 22 21 21 21 21 20 20 20 20 20 20 20 20 20 20 20 20 20 20 20 20 20 20 20 20 20 20 20 20 20 20 19 18 19 18 18 18 18 18 19
23 23 22 22 21 21 21 21 20 20 20 20 20 20 20 20 20 20 20 20 20 20 20 20 20 20 20 20 19 19 19 19 19 19 19 18 18 18 18 18 18 18 18
22 23 23 22 22 21 21 21 21 20 20 20 20 20 20 20 20 20 20 20 20 20 20 19 19 19 19 19 19 19 19 19 19 19 19 18 18 18 18 18 18 18 18
22 22 23 22 22 22 21 21 21 21 21 21 21 20 20 20 20 20 19 19 19 19 19 19 19 19 19 19 19 19 19 19 19 19 19 19 18 18 18 17 18 18 18
21 21 22 22 22 22 21 21 21 21 21 21 21 20 20 20 20 20 19 19 19 19 19 19 19 19 19 19 19 19 19 19 19 19 19 19 19 18 18 18 18 18 18
21 21 21 22 22 22 21 21 21 21 21 21 20 20 20 20 19 19 19 19 19 18 18 18 18 18 18 19 19 18 19 19 19 19 19 19 19 18 18 18 18 18 18
22 21 21 21 21 22 21 21 21 21 20 20 20 20 20 19 19 19 19 19 19 18 18 18 18 18 18 18 18 18 18 19 19 19 19 19 19 19 18 19 18 18 18
22 21 21 21 21 21 21 21 20 20 19 20 20 20 20 19 19 19 19 19 18 18 18 18 18 18 18 18 18 18 18 18 19 19 19 19 19 19 19 19 19 19 18
22 21 21 20 20 20 20 20 20 19 19 19 19 19 19 19 19 19 18 18 18 18 18 18 18 18 18 18 18 18 18 18 18 18 18 18 18 19 19 19 19 19 19
22 22 21 21 20 20 20 20 19 19 19 19 19 19 19 19 19 19 18 18 18 18 18 18 18 18 18 18 18 18 18 18 18 18 18 18 18 18 19 19 18 18 18
22 22 21 21 20 20 20 19 19 19 18 18 18 18 18 18 18 18 18 18 19 18 18 18 18 18 18 18 18 18 18 18 18 18 18 18 18 18 19 19 18 18 18
22 21 21 20 20 19 19 19 19 18 18 18 18 18 18 18 18 18 18 18 19 18 18 18 18 18 18 18 18 18 18 18 18 18 18 18 18 18 19 18 18 18 18
21 21 20 20 19 19 18 18 18 18 18 18 18 18 18 18 18 18 18 18 18 18 18 18 18 18 18 18 18 18 18 18 18 19 19 19 19 19 19 19 18 18 18
20 20 20 20 19 19 19 19 18 18 18 18 18 18 19 19 19 18 18 18 18 18 18 18 18 18 18 18 18 18 18 18 19 19 19 19 19 19 19 19 18 18 18
20 20 20 20 19 19 19 19 18 18 18 18 18 19 19 19 19 18 18 18 18 18 18 18 18 18 18 18 18 18 18 18 18 19 19 19 19 19 19 19 19 18 18
20 20 20 20 20 19 19 19 18 18 18 18 18 18 18 18 18 18 18 18 18 17 17 18 18 18 18 18 17 17 17 17 18 18 18 18 18 19 19 19 18 18 18
21 21 21 20 20 20 19 19 18 18 17 17 17 17 18 17 17 17 17 17 17 17 17 17 17 17 17 17 17 16 16 16 17 17 17 17 17 18 18 18 18 18 18
22 21 21 21 20 20 19 18 18 17 17 16 16 16 16 17 17 17 16 16 16 16 16 16 16 16 16 16 16 16 16 16 16 16 16 17 17 17 17 17 17 18 18
22 22 21 21 20 20 19 18 17 17 16 16 16 16 16 16 16 16 16 16 16 16 16 16 16 16 16 16 16 16 16 15 15 15 15 16 16 16 16 16 17 17 17
22 21 21 20 20 19 18 17 17 16 16 15 15 15 16 16 16 16 16 16 16 15 15 16 15 15 15 15 15 15 15 15 15 15 15 15 15 16 16 16 16 16 16
Wind_Speed
12 18 24 24 23 21 19 17 16 16 15 15 16 17 17 16 15 15 14 13 13 12 12 13 13 13 13 13 13 14 13 12 12 13 13 13 12 11 10 12 12 11 12
15 21 26 26 25 22 20 18 16 16 15 14 14 15 15 14 14 13 12 12 11 11 10 10 11 11 11 11 11 11 10 9 9 10 10 10 10 10 9 9 12 11 12
18 19 25 26 25 23 21 19 17 16 15 14 13 13 13 12 12 11 11 11 10 10 9 9 8 9 9 8 7 7 6 6 5 5 7 6 7 8 10 12 12 11 11
19 19 21 25 25 24 22 20 18 17 16 15 13 13 12 11 10 10 10 10 9 9 8 8 8 7 7 6 5 4 2 2 2 1 2 4 6 7 9 12 12 10 10
16 19 22 25 24 23 22 21 20 18 17 15 14 12 11 10 10 10 9 9 8 8 8 7 7 7 7 6 6 5 4 3 3 3 4 5 8 9 11 12 13 11 10
15 18 22 24 23 23 22 21 20 18 17 16 14 13 11 10 10 9 9 9 9 8 7 7 7 6 7 7 7 7 7 7 6 6 5 9 12 15 15 14 14 13 12
14 15 21 23 23 23 23 21 20 18 17 16 15 13 12 11 10 10 9 9 9 9 8 8 8 8 8 8 8 8 9 9 9 9 7 7 10 16 18 16 15 15 14
18 14 19 22 21 21 22 21 20 19 18 16 15 13 12 12 11 11 11 11 10 10 10 10 11 11 11 11 10 10 10 11 10 9 8 7 10 18 21 20 19 18 17
16 14 13 19 20 21 22 22 21 20 19 17 16 15 14 13 13 14 14 13 13 12 12 12 13 13 14 14 13 13 13 14 13 11 11 10 11 18 24 23 22 21 20
14 13 10 13 15 16 18 21 21 20 20 19 18 17 16 15 15 15 15 15 15 15 16 16 17 17 17 17 16 16 16 15 15 14 12 13 14 17 24 25 23 22 22
12 10 9 9 11 12 13 17 18 19 19 18 17 17 16 14 15 15 16 17 18 19 20 20 20 20 19 18 18 18 17 14 13 13 14 16 18 18 23 26 25 24 24
13 11 10 9 8 10 13 13 12 13 13 14 13 14 13 13 14 15 16 20 21 22 22 22 22 20 19 14 16 18 15 16 13 13 15 20 21 20 23 27 27 26 25
14 13 12 11 9 9 7 8 9 10 10 12 13 15 14 13 12 14 12 15 18 21 19 18 19 17 15 12 11 12 14 14 13 14 16 21 23 22 23 26 27 26 25
15 14 14 13 11 9 8 7 9 8 8 10 14 16 13 8 7 9 9 11 12 14 12 13 10 13 14 15 13 12 13 12 13 14 17 22 23 22 22 24 25 25 24
14 14 15 14 14 11 8 7 8 9 9 13 15 17 16 9 9 7 7 8 10 12 10 7 8 9 10 12 13 12 11 13 14 15 15 20 22 22 22 23 24 24 24
13 12 13 16 15 12 10 9 8 8 10 11 12 16 18 14 9 10 10 7 7 10 11 9 9 11 11 10 11 10 10 11 11 14 15 18 22 24 24 24 24 25 25
9 9 10 13 12 11 10 9 5 6 7 5 7 13 15 15 12 8 9 9 8 11 11 9 8 7 9 9 10 10 8 7 7 9 13 14 16 22 25 25 25 26 26
6 5 6 7 7 7 6 4 2 3 4 4 6 8 11 12 13 8 9 10 9 9 6 7 6 6 7 7 7 7 6 7 8 8 10 12 14 15 19 25 26 26 27
6 6 6 6 4 2 1 2 3 4 4 5 7 8 11 14 14 8 10 10 9 8 8 8 7 6 7 7 7 7 7 8 9 9 9 9 12 14 15 18 24 26 27
6 6 5 5 5 5 2 1 2 3 4 4 4 7 10 11 12 8 9 11 10 9 9 8 8 7 6 7 8 8 7 8 7 8 10 9 9 13 15 15 16 18 24
5 4 3 3 3 3 2 2 2 3 4 5 6 7 9 10 10 7 8 8 8 9 11 10 8 8 8 6 5 6 7 8 10 10 9 9 11 11 12 12 13 13 14
3 3 4 4 4 4 4 4 4 4 5 5 6 6 8 9 9 8 7 7 7 8 9 9 8 6 6 5 5 4 4 5 6 9 7 7 8 8 9 8 8 9 10
5 7 7 8 8 7 7 4 2 2 3 4 6 7 8 7 8 7 8 8 7 7 8 9 8 9 8 6 6 6 5 6 4 4 3 1 2 2 3 4 4 3 5
9 9 9 9 8 7 6 4 4 4 5 6 6 7 9 9 9 8 9 8 8 7 8 8 8 7 8 7 5 6 6 5 4 4 3 2 2 1 2 3 3 2 1
10 9 8 7 5 4 3 3 3 4 5 5 7 9 10 10 10 10 9 8 8 8 8 9 7 7 7 7 5 4 4 4 5 5 4 3 2 2 3 4 2 1 1
7 6 5 5 3 2 2 1 1 3 5 7 9 9 10 9 9 10 10 9 8 7 8 8 7 7 6 6 5 4 4 3 3 4 4 3 2 3 3 2 2 2 2
Wind_Direction
156 157 153 152 149 146 144 141 136 128 121 116 113 110 108 107 108 110 112 113 113 113 114 113 111 109 107 108 109 111 116 121 125 124 120 115 111 105 103 113 111 103 99
153 156 153 154 153 150 146 143 138 132 129 126 123 121 120 119 119 119 120 120 120 119 117 115 113 111 109 108 110 114 118 121 123 122 120 119 117 107 100 130 128 122 113
145 154 154 156 155 152 148 145 143 141 140 139 137 134 133 132 132 131 131 132 132 130 127 124 121 117 116 115 115 117 119 117 115 121 125 128 132 125 115 119 129 129 125
145 150 155 157 157 153 150 149 150 151 151 152 152 150 147 147 146 146 144 143 145 146 145 144 141 138 138 139 139 141 146 142 138 167 185 185 180 163 148 139 140 140 137
144 149 155 159 161 156 154 154 157 159 161 162 163 163 162 162 164 164 162 159 159 162 165 166 164 163 165 170 175 184 209 237 241 247 265 262 247 205 183 166 158 158 157
145 150 155 160 165 162 160 161 163 165 167 169 171 173 174 176 179 179 178 177 177 179 184 186 186 189 195 196 200 209 220 237 252 250 248 259 251 212 197 187 175 172 174
147 154 156 160 165 166 166 166 168 171 173 175 178 180 182 185 190 193 194 196 197 200 203 207 210 210 216 222 225 228 232 243 253 255 250 253 233 202 198 198 189 185 186
152 157 159 162 165 168 168 171 173 176 178 182 185 189 192 197 201 202 206 210 214 218 221 225 223 219 222 227 231 237 244 251 259 260 259 252 231 208 204 202 197 197 198
154 159 161 165 168 171 172 175 178 180 182 187 192 197 201 206 209 211 213 217 221 226 229 232 227 225 226 228 231 236 242 248 253 259 265 265 253 221 211 205 203 205 206
157 164 165 168 170 174 177 180 182 186 188 192 197 201 205 208 212 215 218 222 227 230 232 232 230 230 230 232 234 239 245 251 251 252 256 258 258 235 219 211 209 212 213
160 168 169 170 171 174 180 188 190 195 199 201 205 209 211 215 218 221 224 226 231 233 235 235 235 236 236 238 239 242 247 248 245 248 251 251 251 243 227 218 215 217 218
168 175 176 177 173 173 186 192 197 202 207 209 212 216 217 222 227 231 234 236 237 238 240 241 242 244 245 244 244 246 246 247 247 248 249 252 253 250 234 222 218 220 221
173 175 179 181 179 181 192 185 194 207 211 215 216 218 221 228 236 240 241 243 243 243 242 244 244 244 245 244 240 239 244 249 245 244 248 252 253 253 239 222 219 221 222
174 181 180 182 184 191 195 192 196 207 212 216 222 223 222 228 236 240 241 241 238 237 234 235 237 239 243 247 246 245 247 247 246 240 243 249 249 245 232 221 220 221 223
178 184 183 185 189 193 194 196 201 210 215 218 220 224 223 223 231 235 240 240 238 233 227 226 230 236 240 243 245 245 248 249 244 238 241 244 240 232 227 224 223 223 225
179 181 179 186 192 193 194 194 201 210 220 225 226 226 224 227 231 234 238 236 233 230 228 225 225 233 238 240 241 240 241 242 237 235 238 243 236 228 228 229 229 229 229
168 166 171 184 191 196 202 203 201 213 221 225 232 234 231 229 232 236 240 243 238 230 223 223 226 228 235 237 240 243 245 242 239 238 242 241 238 234 232 232 233 233 232
137 135 155 172 185 209 221 234 256 274 280 274 273 270 262 250 242 239 246 250 243 233 223 221 218 220 229 231 238 247 253 259 258 254 253 243 235 236 234 233 234 236 238
102 97 95 90 91 66 345 322 307 300 287 280 279 274 271 269 264 246 250 251 244 237 232 233 226 216 227 234 240 247 248 251 256 261 257 248 239 234 233 235 235 238 242
109 107 113 132 149 152 155 218 262 277 274 272 271 270 271 269 266 252 249 246 240 239 239 234 231 227 227 233 249 254 248 246 247 250 254 253 248 243 238 236 237 242 245
126 139 163 177 183 170 175 205 240 260 266 273 269 270 276 277 273 259 257 252 242 239 240 237 234 238 241 229 239 265 268 254 250 251 250 251 252 247 239 236 236 237 244
166 186 197 206 210 198 193 201 210 229 254 262 273 282 280 280 277 277 265 260 251 245 246 240 231 237 244 220 213 240 281 291 257 248 249 258 265 262 252 247 244 238 237
192 199 199 204 206 207 206 202 228 267 287 289 291 288 283 280 278 272 266 259 253 243 245 243 234 233 243 241 213 210 223 243 283 283 243 258 321 332 312 294 266 243 230
203 196 190 192 197 207 203 202 225 247 266 270 276 280 286 283 279 271 263 254 248 241 241 244 238 231 231 242 231 218 218 204 224 286 298 274 304 302 295 283 288 291 182
203 193 189 186 197 204 190 197 229 263 273 286 292 291 291 289 280 273 263 253 245 238 235 237 236 229 224 226 218 208 215 219 212 218 266 297 326 280 262 251 250 266 90
202 186 178 172 185 172 132 109 75 310 309 312 309 303 298 293 287 276 266 253 243 237 236 235 229 219 214 206 200 193 188 190 202 198 224 259 302 298 298 320 32 50 75
Height
1526 1531 1533 1536 1538 1539 1541 1542 1544 1546 1547 1548 1549 1550 1550 1551 1552 1552 1553 1553 1553 1554 1554 1554 1554 1555 1555 1555 1556 1556 1556 1556 1556 1556 1557 1557 1557 1557 1557 1557 1557 1557 1557
1524 1529 1532 1535 1537 1539 1541 1543 1544 1546 1547 1549 1550 1550 1551 1552 1552 1552 1553 1553 1554 1554 1555 1555 1555 1556 1556 1556 1557 1557 1557 1558 1558 1558 1559 1559 1559 1559 1559 1559 1558 1558 1559
1525 1529 1532 1534 1537 1539 1542 1543 1545 1546 1548 1549 1550 1551 1552 1552 1553 1553 1553 1553 1554 1554 1555 1555 1556 1556 1556 1557 1557 1557 1558 1559 1559 1559 1560 1560 1560 1560 1561 1560 1560 1560 1560
1526 1529 1532 1535 1537 1540 1542 1544 1545 1547 1548 1549 1550 1551 1552 1552 1553 1553 1553 1553 1554 1554 1555 1555 1555 1556 1556 1556 1557 1557 1558 1558 1559 1559 1559 1560 1560 1560 1561 1562 1562 1561 1561
1526 1529 1532 1535 1538 1540 1542 1543 1545 1546 1547 1549 1550 1551 1552 1552 1552 1553 1553 1553 1554 1554 1554 1554 1555 1555 1555 1556 1556 1557 1557 1557 1558 1558 1558 1559 1559 1560 1561 1562 1562 1562 1562
1526 1529 1532 1534 1537 1539 1541 1543 1545 1546 1547 1548 1550 1551 1551 1551 1552 1552 1553 1553 1553 1554 1554 1554 1554 1554 1555 1555 1555 1555 1556 1556 1556 1557 1557 1557 1558 1558 1559 1560 1561 1562 1562
1525 1528 1531 1533 1536 1538 1540 1542 1544 1545 1547 1548 1549 1550 1550 1551 1551 1551 1552 1553 1553 1553 1553 1553 1554 1554 1554 1554 1554 1554 1554 1554 1555 1555 1555 1555 1556 1557 1558 1559 1560 1561 1561
1525 1528 1530 1533 1535 1537 1539 1541 1543 1544 1545 1547 1548 1549 1549 1550 1550 1551 1551 1551 1552 1552 1552 1552 1553 1553 1553 1553 1553 1553 1553 1553 1553 1553 1553 1553 1554 1554 1556 1557 1558 1558 1559
1526 1528 1530 1532 1534 1536 1538 1539 1541 1542 1544 1545 1546 1547 1548 1548 1549 1549 1550 1550 1551 1551 1551 1551 1551 1551 1551 1551 1551 1551 1550 1550 1550 1550 1550 1551 1551 1552 1553 1554 1555 1555 1556
1527 1528 1530 1532 1533 1535 1536 1538 1539 1540 1542 1543 1544 1545 1545 1546 1547 1547 1548 1548 1549 1549 1549 1549 1549 1549 1549 1548 1548 1548 1547 1547 1547 1547 1547 1547 1549 1549 1550 1551 1552 1552 1552
1526 1528 1530 1532 1533 1534 1536 1537 1539 1540 1541 1542 1543 1543 1544 1544 1545 1545 1546 1546 1546 1546 1547 1547 1546 1546 1546 1545 1545 1544 1544 1544 1544 1544 1543 1544 1545 1546 1546 1547 1548 1548 1548
1525 1527 1529 1531 1532 1533 1535 1536 1537 1538 1540 1541 1542 1542 1543 1543 1543 1543 1543 1543 1543 1543 1544 1543 1543 1543 1542 1542 1542 1542 1541 1542 1542 1541 1541 1541 1542 1542 1543 1543 1543 1544 1544
1525 1527 1529 1531 1532 1533 1534 1535 1536 1538 1539 1540 1540 1541 1541 1541 1541 1541 1540 1540 1540 1540 1540 1540 1540 1539 1539 1539 1539 1539 1539 1539 1538 1539 1539 1539 1539 1539 1538 1538 1539 1539 1540
1524 1526 1529 1530 1532 1533 1534 1535 1536 1537 1537 1538 1538 1539 1539 1539 1539 1538 1538 1538 1537 1537 1537 1538 1538 1537 1537 1537 1537 1537 1536 1536 1535 1535 1536 1536 1535 1535 1535 1535 1535 1535 1536
1523 1525 1526 1528 1530 1532 1532 1533 1534 1535 1535 1536 1537 1537 1536 1536 1536 1536 1536 1535 1535 1534 1534 1535 1535 1535 1534 1534 1534 1533 1533 1533 1532 1532 1532 1531 1531 1531 1531 1532 1532 1532 1532
1522 1523 1524 1526 1528 1529 1530 1531 1531 1532 1533 1533 1533 1533 1533 1533 1533 1533 1532 1532 1531 1531 1531 1531 1531 1531 1530 1530 1530 1530 1529 1529 1528 1528 1528 1527 1527 1527 1527 1527 1528 1528 1528
1522 1523 1524 1525 1527 1528 1529 1530 1530 1531 1531 1530 1530 1529 1529 1529 1528 1528 1528 1527 1527 1526 1526 1526 1526 1526 1525 1525 1525 1525 1525 1525 1524 1524 1523 1523 1522 1522 1522 1522 1523 1523 1523
1522 1523 1524 1525 1526 1527 1528 1528 1528 1528 1528 1527 1527 1526 1525 1524 1523 1523 1522 1520 1521 1521 1521 1521 1520 1520 1519 1519 1519 1520 1520 1520 1520 1519 1519 1518 1517 1517 1517 1517 1517 1518 1518
1520 1522 1523 1524 1524 1525 1525 1525 1525 1524 1523 1523 1522 1521 1519 1519 1518 1517 1515 1514 1514 1515 1514 1515 1514 1514 1514 1513 1514 1514 1514 1514 1513 1513 1513 1512 1512 1511 1511 1511 1511 1512 1512
1519 1520 1521 1522 1523 1523 1522 1522 1521 1520 1519 1518 1516 1515 1514 1512 1511 1510 1509 1508 1508 1508 1507 1508 1508 1507 1508 1508 1507 1507 1506 1507 1506 1506 1506 1506 1505 1505 1505 1504 1505 1505 1506
1518 1519 1520 1520 1520 1520 1519 1518 1517 1515 1513 1512 1511 1509 1508 1506 1505 1504 1503 1502 1501 1501 1501 1501 1501 1501 1501 1502 1502 1500 1499 1499 1498 1498 1498 1497 1497 1497 1498 1498 1498 1498 1499
1516 1517 1517 1517 1517 1516 1515 1514 1512 1510 1507 1506 1504 1502 1500 1499 1497 1496 1495 1494 1494 1494 1493 1494 1494 1494 1494 1495 1495 1494 1492 1492 1490 1490 1490 1490 1489 1489 1490 1491 1491 1492 1493
1513 1514 1513 1513 1512 1511 1510 1509 1507 1504 1502 1500 1498 1495 1494 1492 1490 1488 1487 1487 1486 1486 1485 1485 1486 1487 1487 1487 1488 1489 1487 1484 1483 1483 1483 1482 1481 1481 1482 1483 1485 1486 1487
1509 1509 1509 1508 1508 1506 1505 1503 1501 1499 1496 1494 1491 1489 1487 1485 1483 1481 1480 1479 1478 1478 1477 1478 1478 1478 1479 1479 1480 1480 1481 1480 1481 1478 1478 1477 1476 1476 1477 1478 1479 1481 1482
1505 1505 1505 1504 1503 1502 1500 1498 1496 1494 1491 1488 1486 1483 1480 1478 1476 1474 1472 1471 1470 1470 1470 1470 1470 1470 1471 1472 1472 1473 1474 1474 1474 1474 1473 1472 1472 1473 1474 1475 1476 1476 1477
1503 1503 1502 1502 1500 1499 1497 1494 1492 1489 1486 1483 1480 1476 1473 1470 1467 1465 1464 1463 1463 1463 1463 1463 1463 1463 1464 1465 1466 1467 1468 1469 1469 1469 1469 1468 1468 1469 1471 1472 1472 1472 1473